Location: Endfield
(51.6667°N, 0.0667°W)
Time: 06:36:53
(UTC+00:00)

Cosmos 1805 - Pass Details

Date: 19 May 2024
Orbit: 488 x 492 km, 82.5° (Epoch: 19 June)

Event Time Altitude Azimuth Distance (km) Brightness Sun altitude
Rises 22:35:18 0° 350° (N) 2,593 8.5 -16.1°
Reaches altitude 10° 22:37:25 10° 352° (N) 1,705 7.1 -16.2°
Maximum altitude 22:41:10 78° 79° (E) 513 3.1 -16.4°
Enters shadow 22:42:30 38° 160° (SSE) 777 3.5 -16.5°
